Regional Weather Roundup
Issued by NWS

Home | Current Version | Previous Version | Graphics & Text | Print | Product List | Glossary On
Versions: 1 2 3 4 5 6 7 8 9 10 11 12 13 14 15 16 17 18 19 20 21 22 23 24 25 26 27 28 29 30 31 32 33 34 35 36 37 38 39 40 41 42 43 44 45 46 47 48 49 50
000
ASUS43 KDMX 190406
RWRIA

WEATHER ROUNDUP FOR IOWA
NATIONAL WEATHER SERVICE DES MOINES IA
1100 PM CDT MON SEP 18 2017

NOTE: "FAIR" INDICATES FEW OR NO CLOUDS BELOW 12,000 FEET WITH NO
SIGNIFICANT WEATHER AND/OR OBSTRUCTIONS TO VISIBILITY.

* - THESE STATIONS ARE NOT NWS STATIONS...THUS NOT UNDER NWS
QUALITY CONTROL.  THEY ALSO DO NOT REPORT WEATHER SUCH
AS PRECIPITATION OR FOG.

IAZ001>003-012>014-020>022-031>034-043>046-190500-
   NORTHWEST IOWA

CITY           SKY/WX    TMP DP  RH WIND       PRES   REMARKS
CARROLL *      MOCLDY    64  64 100 S7        29.92S
CHEROKEE *     CLOUDY    67  67  99 CALM      29.91S
DENISON *      CLOUDY    66  64  94 SE9       29.93S
LE MARS *      CLOUDY    68  66  94 S7        29.89S
ORANGE CITY *  CLOUDY    68  66  94 SE5       29.90F
SHELDON *      CLOUDY    66  64  94 S6        29.89S
SIOUX CITY     CLEAR     64  64 100 SE7       29.89S
SPENCER        CLOUDY    64  63  96 SE7       29.92S
STORM LAKE *   MOCLDY    64  63  94 SE6       29.92S
$$

IAZ055>058-069>071-079>083-090>094-190500-
   SOUTHWEST IOWA

CITY           SKY/WX    TMP DP  RH WIND       PRES   REMARKS
ATLANTIC *     CLOUDY    66  64  94 SW3       29.93R
AUDUBON *      CLEAR     64  63  94 CALM      29.94S
CLARINDA *     CLOUDY    68  66  94 SE6       29.94F
COUNCIL BLFS * CLOUDY    66  66 100 SE8       29.91S
CRESTON *      CLOUDY    64 N/A N/A SE5       29.96S HAZE
HARLAN  *      CLOUDY    68  66  94 S7        29.95S
LAMONI         CLEAR     66  65  96 S5        29.95S
RED OAK *      CLOUDY    68  66  94 SE7       29.92S
SHENANDOAH *   CLEAR     66  66 100 SE5       29.92S
$$

IAZ047>049-059>061-072>074-084-190500-
   CENTRAL IOWA

CITY           SKY/WX    TMP DP  RH WIND       PRES   REMARKS
AMES           FOG       61  61 100 CALM      29.94F VSB 1/4
ANKENY *       FOG       63  61  94 CALM      29.95S VSB 1/4
BOONE *        FOG       61  61 100 SE5       29.94S VSB<1/4
CHARITON *     FOG       64  64 100 SE5       29.95F VSB<1/4
DES MOINES     PTCLDY    67  65  93 SE8       29.94S FOG
GRINNELL*      FOG       62  61  97 CALM      29.97S VSB 1
KNOXVILLE *    FOG       64  63  94 CALM      29.94F VSB<1/4
MARSHALLTOWN   PTCLDY    60  60 100 E3        29.95S FOG
NEWTON *       FOG       63  63 100 E5        29.96S VSB 1/4
PELLA *          N/A     63  62  97 CALM      29.96S FOG
PERRY *        FOG       61  60  97 SE3       29.94S VSB 1/4
$$

IAZ004>006-015-016-023>025-035-036-190500-
   NORTH CENTRAL IOWA

CITY           SKY/WX    TMP DP  RH WIND       PRES   REMARKS
ALGONA *       MOCLDY    64  64 100 SE7       29.94R
CLARION *      CLOUDY    66  66 100 S9        29.94S
ESTHERVILLE    CLOUDY    63  63 100 SE6       29.92S
FORT DODGE *   CLOUDY    66  65  96 SE7       29.94S
MASON CITY     MOCLDY    61  59  93 SE6       29.96S
FOREST CITY *  MOCLDY    61  61 100 CALM      29.95R
WEBSTER CITY * PTCLDY    64  63  94 SE6       29.93R
IOWA FALLS *   MOCLDY    63  62  96 S3        29.97S FOG
$$

IAZ007>011-017>019-026>030-037>042-050>054-066-190500-
   NORTHEAST IOWA

CITY           SKY/WX    TMP DP  RH WIND       PRES   REMARKS
CEDAR RAPIDS   CLOUDY    64  64 100 CALM      29.95F
CHARLES CITY * CLOUDY    63  61  94 CALM      29.97R
CLINTON *      LGT RAIN  68  65  90 CALM      29.97R
DECORAH *      CLOUDY    61  57  88 CALM      29.97R
DUBUQUE        LGT RAIN  67  59  75 CALM      29.99R
MONTICELLO *   CLOUDY    66  64  94 SE7       29.95F
OELWEIN *      CLEAR     59  59 100 E5        29.97S
WATERLOO       CLEAR     58  57  97 CALM      29.95S
$$

IAZ064-065-067-068-078-190500-
   EAST CENTRAL IOWA

CITY           SKY/WX    TMP DP  RH WIND       PRES   REMARKS
DAVENPORT      CLOUDY    68  66  93 NW5       29.98S FOG
IOWA CITY      PTCLDY    68  65  90 SE5       29.96F
MT. PLEASANT *   N/A     64  64 100 CALM      29.95S FOG
MUSCATINE *    MOCLDY    66  66 100 CALM      29.96R
QUAD CITIES    CLOUDY    71  66  84 SE3       29.96R
$$

IAZ062-063-075>077-085>089-095>099-190500-
   SOUTHEAST IOWA

CITY           SKY/WX    TMP DP  RH WIND       PRES   REMARKS
BURLINGTON     PTCLDY    68  67  96 N3        29.95S
FAIRFIELD *    FOG       63  61  94 NE6       29.95S VSB 1/4
FORT MADISON * PTCLDY    66  66 100 CALM      29.96R
KEOKUK *       CLOUDY    66  64  94 CALM      29.95S
OSKALOOSA *    FOG       62  62  98 CALM      29.97R VSB 3/4
OTTUMWA        FOG       64  64 100 E3        29.95S VSB 1/2
WASHINGTON *   CLEAR     64  64 100 NE5       29.97S FOG
$$

ABBREVIATIONS USED IN REMARKS
   TC - TEMPERATURES IN CELSIUS
  WCI - WIND CHILL INDEX
   HX - HEAT INDEX
  VSB - VISIBILITY
$$





USA.gov is the U.S. government's official web portal to all federal, state and local government web resources and services.